392  
ASUS44 KSHV 181310  
RWRSHV  
 
WEATHER ROUNDUP FOR THE FOUR STATE AREA  
NATIONAL WEATHER SERVICE SHREVEPORT LA  
800 AM CDT WED SEP 18 2019  
 
NOTE: "FAIR" INDICATES FEW OR NO CLOUDS BELOW 12000 FEET  
WITH NO SIGNIFICANT WEATHER AND/OR S TO VISIBILITY
.  
 
!LAZ001-LAZ014-TXZ097-181400  
SHREVEPORT...MONROE...TEXARKANA RADIOS  
 
CITY SKY/WX TMP DP RH WIND PRES REMARKS
 
SHREVEPORT MOSUNNY 77 73 87 SE5 29.95S  
MONROE N/A 76 72 87 S3 30.00R  
NATCHITOCHES N/A 75 73 92 E5 29.96S  
TEXARKANA SUNNY 72 69 90 E3 29.99R  

 
 
!LAZ001-LAZ014-TXZ097-181400  
OTHER LOCATIONS...  
 
CITY SKY/WX TMP DP RH WIND PRES REMARKS
 
DOWNTOWN SHV SUNNY 77 71 82 E5 29.96R  
BOSSIER CITY NOT AVBL  
RUSTON N/A 74 70 89 CALM 30.03R  
LITTLE ROCK SUNNY 75 70 84 CALM 30.01R  
EL DORADO N/A 73 72 96 CALM 30.00R  
JACKSON N/A 76 70 82 CALM 30.01R  
NEW ORLEANS PTSUNNY 81 73 76 E5 30.00R  
HOUSTON HVY RAIN 76 74 93 S10 29.85R VSB 1  
LUFKIN RAIN 75 72 90 E9 29.90R  
TYLER CLOUDY 76 72 87 E6 29.94R  
DAL FT WORTH PTCLDY 76 70 82 E3 29.93R  

 
 
!TXZ136-TXZ165-181400  
TYLER...LUFKIN RADIOS  
 
CITY SKY/WX TMP DP RH WIND PRES REMARKS
 
TYLER CLOUDY 76 72 87 E6 29.94R  
GILMER CLOUDY 73 70 91 E5 29.96S  
LONGVIEW CLOUDY 76 73 91 E7 29.94R  
LUFKIN RAIN 75 72 90 E9 29.90R  

 
 
!TXZ136-TXZ165-181400  
OTHER LOCATIONS...  
 
CITY SKY/WX TMP DP RH WIND PRES REMARKS
 
NACOGDOCHES N/A N/A N/A N/A MISG N/A  
BEAUMONT HVY RAIN 76 75 97 S14G22 29.90R  
HOUSTON HVY RAIN 76 74 93 S10 29.85R VSB 1  
COLLEGE STN CLOUDY 76 74 93 NW7 29.87R  
AUSTIN PTCLDY 74 71 91 N5 29.91S  
DAL FT WORTH PTCLDY 76 70 82 E3 29.93R  
TEXARKANA SUNNY 72 69 90 E3 29.99R  
SHREVEPORT MOSUNNY 77 73 87 SE5 29.95S  
FORT POLK CLOUDY 78 75 92 E6 29.93R  
LAKE CHARLES PTSUNNY 82 79 90 SE10 29.92R  

 
 
 
CLICK HERE TO GO TO PREVIOUS BULLETINS.

The Nexlab LA Page
The Nexlab TX Page
The Nexlab AR Page
The Nexlab OK Page Main Text Page